Tracking 18852 objects as of 24-Nov-2017
HD Live streaming from Space Station
objects crossing your sky now

FENGYUN 1C DEB

Track FENGYUN 1C DEB now!
10-day predictions


NORAD ID: 36241
Int'l Code: 1999-025DVS
Perigee: 448.5 km
Apogee: 714.7 km
Inclination: 98.3 °
Period: 96.2 minutes
Semi major axis: 6952 km
RCS: 0.0084 m2 (small)
Launch date: May 10, 1999
Source: People's Republic of China (PRC)
Launch site: Taiyaun Space Center, China (TSC)

Note: This is SATELLITE DEBRIS
aabbcc
Your satellite tracking list
Your tracking list is empty




NASA's NSSDC Master Catalog

Two Line Element Set (TLE):
1 36241U 99025DVS 17327.13183057  .00004670  00000-0  27860-3 0  9992
2 36241  98.2970  97.1513 0191433  75.0258 287.2066 14.97561754474136
Source of the keplerian elements: AFSPC